TimeCDT,TemperatureF,Dew PointF,Humidity,Sea Level PressureIn,VisibilityMPH,Wind Direction,Wind SpeedMPH,Gust SpeedMPH,PrecipitationIn,Events,Conditions,WindDirDegrees,DateUTC
12:53 AM,70.0,64.9,84,29.98,-9999.0,SSE,3.5,-,N/A,,Clear,150,2013-09-19 05:53:00
1:53 AM,71.1,64.9,81,29.98,-9999.0,SSE,5.8,-,N/A,,Clear,150,2013-09-19 06:53:00
2:53 AM,70.0,64.9,84,29.97,-9999.0,SSE,8.1,-,N/A,,Clear,150,2013-09-19 07:53:00
3:53 AM,71.1,64.0,78,29.97,-9999.0,SE,6.9,-,N/A,,Clear,140,2013-09-19 08:53:00
4:53 AM,72.0,64.0,76,29.97,-9999.0,SSE,9.2,-,N/A,,Clear,150,2013-09-19 09:53:00
5:53 AM,72.0,64.9,78,29.98,-9999.0,Calm,Calm,-,N/A,,Clear,0,2013-09-19 10:53:00
6:53 AM,72.0,64.9,78,29.99,-9999.0,South,6.9,-,N/A,,Clear,170,2013-09-19 11:53:00
7:53 AM,73.0,66.0,79,30.00,-9999.0,South,4.6,-,N/A,,Clear,170,2013-09-19 12:53:00
8:53 AM,73.9,66.9,79,30.00,-9999.0,South,5.8,-,N/A,,Clear,170,2013-09-19 13:53:00
9:53 AM,78.1,68.0,71,30.01,-9999.0,South,4.6,-,N/A,,Clear,180,2013-09-19 14:53:00
10:53 AM,82.9,69.1,63,30.01,-9999.0,SSE,6.9,-,N/A,,Clear,160,2013-09-19 15:53:00
11:53 AM,86.0,69.1,57,30.01,-9999.0,SSW,8.1,-,N/A,,Partly Cloudy,210,2013-09-19 16:53:00
12:53 PM,88.0,66.9,49,29.99,10.0,WSW,9.2,-,N/A,,Partly Cloudy,250,2013-09-19 17:53:00
1:53 PM,90.0,68.0,48,29.96,10.0,SW,8.1,-,N/A,,Scattered Clouds,220,2013-09-19 18:53:00
2:10 PM,89.6,66.2,46,30.01,10.0,SSW,8.1,-,N/A,Thunderstorm,Scattered Clouds,210,2013-09-19 19:10:00
2:40 PM,82.4,66.2,58,30.00,10.0,SSE,8.1,19.6,N/A,,Mostly Cloudy,160,2013-09-19 19:40:00
2:53 PM,87.1,66.0,49,29.94,10.0,SE,9.2,-,N/A,,Partly Cloudy,140,2013-09-19 19:53:00
3:53 PM,84.9,66.9,55,29.93,10.0,SSW,8.1,-,N/A,,Clear,200,2013-09-19 20:53:00
4:05 PM,84.2,68.0,58,29.97,10.0,South,8.1,-,0.00,Rain-Thunderstorm,Light Rain,190,2013-09-19 21:05:00
4:32 PM,84.2,68.0,58,29.98,10.0,South,12.7,18.4,0.00,,Partly Cloudy,190,2013-09-19 21:32:00
4:53 PM,84.0,66.9,56,29.94,10.0,South,9.2,-,0.00,,Partly Cloudy,190,2013-09-19 21:53:00
5:53 PM,80.1,69.1,69,29.92,10.0,South,9.2,-,N/A,,Clear,180,2013-09-19 22:53:00
6:53 PM,77.0,70.0,79,29.91,10.0,SE,9.2,-,N/A,,Clear,140,2013-09-19 23:53:00
7:53 PM,73.0,66.9,81,29.92,10.0,South,5.8,-,N/A,,Clear,170,2013-09-20 00:53:00
8:53 PM,73.0,68.0,84,29.94,10.0,South,4.6,-,N/A,,Clear,180,2013-09-20 01:53:00
9:53 PM,72.0,68.0,87,29.94,10.0,SSE,6.9,-,N/A,,Clear,160,2013-09-20 02:53:00
10:53 PM,72.0,68.0,87,29.94,8.0,South,5.8,-,N/A,,Clear,170,2013-09-20 03:53:00
11:53 PM,73.0,68.0,84,29.91,10.0,South,5.8,-,N/A,,Clear,170,2013-09-20 04:53:00